星链-30430 (STARLINK-30430 )

导读

STARLINK-30430是美国星链项目下属的低轨互联网卫星,于2023年9月12日发射升空。该卫星归属于SpaceX公司打造的星链星座,星链计划旨在为全球提供覆盖广泛、低延迟的高速卫星互联网服务,这颗卫星的入轨进一步扩充了星链星座的在轨卫星规模,推进了全球卫星互联网组网建设进程。

基本信息
目录编号:
57849
目录名称:
STARLINK-30430
国际标识:
2023-141K
轨道中心:
EARTH
卫星名称:
星链-30430
卫星全名:
星链-30430 (STARLINK-30430 )
卫星状态:
在轨 (已飞行1010 天)
发射日期:
2023-09-12 UTC
国别 :
美国 (US)
星等 :
--
轨道信息
数据来源 国际轨道数据 AOE轨道数据
星历时间 2026-06-17T15:30:04+0800
1天前
查看轨道信息
2026-06-16T22:00:00+0800
1天前
查看轨道信息
半长轴 6848.885km 6848.897km
偏心率 0.0001319 0.0001269
轨道倾角 53.160° 53.161°
近地点辐角 81.860° 58.725°
升交点赤经 181.181° 184.587°
平近点角 278.255° 238.153°
近地点 469.844km 469.89km
远地点 471.652km 471.63km
周期 94.013分钟 94.014分钟
每日圈数 15.316974 15.316934
详细信息
固有亮度:
5
最大亮度:
0.3
卫星平台:
Starlink v2.0 mini
覆盖范围:
全球
运营商:
太空探索技术公司
运营商所在国:
美国
制造商(研发单位):
太空探索技术公司
制造商所在国:
美国
使用方式:
暂无
卫星简介
星链(Starlink)计划是由太空探索技术公司(SpaceX)提出的一个巨型低轨卫星互联网星座项目,计划在2019年至2024年间在太空搭建由约1.2万颗卫星组成的“星链”网络,其中1584颗将部署在地球上空550千米处的近地轨道,并从2020年开始工作。该卫星仍在工作。
2D轨道图
3D轨道图
轨道高度分析图
轨道倾角分析图
轨道综合分析图
查看轨道综合分析图